When you browse on this site, cookies collect data to enhance your experience and personalize the content and advertising you see.
Visit our Privacy Policy to learn more. By continuing to use the site, you agree to this use of cookies and data.
  • en Suisse
  • Liste des pays
  • À 7 jours
  • Température de l'eau
  • Carte satellitaire
  • Carte météo
  • Widgets météo
  • user-avatar
    Se connecter

    Météo par heure à Benguela

    Ce jour, 20 Janvier, Dimanche

    Heure Température Précipitation Vent Pression Humidité
    00:00 +26°C° 0 mm 0 m/s 759 mmHg 74%
    01:00 +26°C° 0 mm 0 m/s 759 mmHg 73%
    02:00 +26°C° 0 mm 0 m/s 759 mmHg 73%
    03:00 +28°C° 0 mm 1 m/s 759 mmHg 73%
    04:00 +28°C° 0 mm 1 m/s 759 mmHg 73%
    05:00 +28°C° 0 mm 1 m/s 760 mmHg 73%
    06:00 +28°C° 0 mm 1 m/s 760 mmHg 73%
    07:00 +28°C° 0 mm 1 m/s 760 mmHg 72%
    08:00 +28°C° 0 mm 1 m/s 760 mmHg 69%
    09:00 +29°C° 0 mm 1 m/s 761 mmHg 66%
    10:00 +29°C° 0 mm 1 m/s 761 mmHg 63%
    11:00 +29°C° 0 mm 1 m/s 760 mmHg 59%
    12:00 +30°C° 0 mm 1 m/s 760 mmHg 55%
    13:00 +30°C° 0 mm 1 m/s 759 mmHg 52%
    14:00 +31°C° 0 mm 2 m/s 759 mmHg 50%
    15:00 +32°C° 0 mm 2 m/s 758 mmHg 49%
    16:00 +33°C° 0 mm 3 m/s 758 mmHg 48%
    17:00 +31°C° 0 mm 2 m/s 758 mmHg 53%
    18:00 +30°C° 0 mm 2 m/s 758 mmHg 57%
    19:00 +29°C° 0 mm 2 m/s 758 mmHg 62%
    20:00 +29°C° 0 mm 2 m/s 759 mmHg 65%
    21:00 +28°C° 0 mm 2 m/s 760 mmHg 68%
    22:00 +28°C° 0 mm 2 m/s 761 mmHg 71%
    23:00 +28°C° 0 mm 2 m/s 760 mmHg 72%

    Demain, 21 Janvier, Lundi

    Heure Température Précipitation Vent Pression Humidité
    00:00 +28°C° 0 mm 2 m/s 760 mmHg 73%
    01:00 +28°C° 0 mm 2 m/s 760 mmHg 74%
    02:00 +28°C° 0.1 mm 2 m/s 760 mmHg 74%
    03:00 +27°C° 0.1 mm 2 m/s 760 mmHg 75%
    04:00 +27°C° 0.1 mm 1 m/s 760 mmHg 75%
    05:00 +27°C° 1.3 mm 2 m/s 760 mmHg 77%
    06:00 +27°C° 1.3 mm 2 m/s 760 mmHg 79%
    07:00 +26°C° 1.3 mm 2 m/s 760 mmHg 81%
    08:00 +26°C° 1.4 mm 2 m/s 761 mmHg 80%
    09:00 +27°C° 1.4 mm 2 m/s 761 mmHg 79%
    10:00 +27°C° 1.4 mm 2 m/s 761 mmHg 78%
    11:00 +27°C° 0.4 mm 1 m/s 761 mmHg 74%
    12:00 +28°C° 0.4 mm 1 m/s 760 mmHg 70%
    13:00 +28°C° 0.4 mm 1 m/s 760 mmHg 67%
    14:00 +29°C° 0 mm 2 m/s 759 mmHg 62%
    15:00 +30°C° 0 mm 2 m/s 758 mmHg 58%
    16:00 +31°C° 0 mm 2 m/s 758 mmHg 53%
    17:00 +30°C° 0 mm 2 m/s 758 mmHg 55%
    18:00 +30°C° 0 mm 2 m/s 758 mmHg 57%
    19:00 +29°C° 0 mm 2 m/s 759 mmHg 59%
    20:00 +29°C° 0 mm 2 m/s 759 mmHg 61%
    21:00 +28°C° 0 mm 2 m/s 760 mmHg 64%
    22:00 +28°C° 0 mm 1 m/s 760 mmHg 66%
    23:00 +28°C° 0 mm 1 m/s 760 mmHg 67%

    Après-demain, 22 Janvier, Mardi

    Heure Température Précipitation Vent Pression Humidité
    00:00 +27°C° 0 mm 1 m/s 760 mmHg 68%
    01:00 +27°C° 0 mm 1 m/s 759 mmHg 69%
    02:00 +27°C° 0 mm 1 m/s 759 mmHg 69%
    03:00 +27°C° 0 mm 1 m/s 759 mmHg 69%
    04:00 +27°C° 0 mm 1 m/s 758 mmHg 70%
    05:00 +27°C° 0 mm 1 m/s 759 mmHg 69%
    06:00 +27°C° 0 mm 1 m/s 759 mmHg 68%
    07:00 +28°C° 0 mm 1 m/s 760 mmHg 67%
    08:00 +29°C° 0 mm 1 m/s 760 mmHg 62%
    09:00 +30°C° 0 mm 2 m/s 760 mmHg 56%
    10:00 +32°C° 0 mm 2 m/s 761 mmHg 51%
    11:00 +33°C° 0 mm 3 m/s 760 mmHg 50%
    12:00 +34°C° 0 mm 4 m/s 760 mmHg 49%
    13:00 +35°C° 0 mm 5 m/s 759 mmHg 48%
    14:00 +34°C° 0 mm 5 m/s 758 mmHg 50%
    15:00 +34°C° 0 mm 5 m/s 758 mmHg 53%
    16:00 +33°C° 0 mm 5 m/s 757 mmHg 55%
    17:00 +32°C° 0 mm 5 m/s 758 mmHg 59%
    18:00 +32°C° 0 mm 4 m/s 758 mmHg 64%
    19:00 +30°C° 0 mm 4 m/s 759 mmHg 68%
    20:00 +29°C° 0 mm 3 m/s 759 mmHg 71%
    21:00 +29°C° 0 mm 3 m/s 760 mmHg 73%
    22:00 +29°C° 0 mm 2 m/s 760 mmHg 75%
    23:00 +28°C° 0 mm 2 m/s 760 mmHg 77%

    23 Janvier, Mercredi

    Heure Température Précipitation Vent Pression Humidité
    00:00 +28°C° 0 mm 2 m/s 760 mmHg 78%
    01:00 +28°C° 0 mm 1 m/s 759 mmHg 80%
    02:00 +28°C° 0 mm 1 m/s 759 mmHg 81%
    03:00 +27°C° 0 mm 1 m/s 759 mmHg 82%
    04:00 +27°C° 0 mm 1 m/s 758 mmHg 84%
    05:00 +27°C° 0 mm 1 m/s 759 mmHg 83%
    06:00 +27°C° 0 mm 1 m/s 759 mmHg 81%
    07:00 +28°C° 0 mm 1 m/s 759 mmHg 80%
    08:00 +29°C° 0 mm 2 m/s 760 mmHg 72%
    09:00 +30°C° 0 mm 2 m/s 760 mmHg 65%
    10:00 +33°C° 0 mm 3 m/s 760 mmHg 58%
    11:00 +33°C° 0 mm 4 m/s 759 mmHg 56%
    12:00 +34°C° 0 mm 5 m/s 758 mmHg 54%
    13:00 +34°C° 0 mm 6 m/s 758 mmHg 53%
    14:00 +34°C° 0 mm 5 m/s 757 mmHg 55%
    15:00 +33°C° 0 mm 4 m/s 757 mmHg 57%
    16:00 +33°C° 0 mm 4 m/s 756 mmHg 59%
    17:00 +31°C° 0 mm 3 m/s 757 mmHg 62%
    18:00 +30°C° 0 mm 3 m/s 757 mmHg 65%
    19:00 +29°C° 0 mm 3 m/s 758 mmHg 69%
    20:00 +29°C° 0 mm 2 m/s 758 mmHg 69%
    21:00 +29°C° 0 mm 2 m/s 759 mmHg 70%
    22:00 +29°C° 0 mm 2 m/s 759 mmHg 70%
    23:00 +29°C° 0 mm 2 m/s 759 mmHg 71%

    24 Janvier, Jeudi

    Heure Température Précipitation Vent Pression Humidité
    00:00 +28°C° 0 mm 2 m/s 758 mmHg 71%
    01:00 +28°C° 0 mm 2 m/s 758 mmHg 72%
    02:00 +28°C° 0 mm 2 m/s 758 mmHg 73%
    03:00 +28°C° 0 mm 1 m/s 757 mmHg 75%
    04:00 +27°C° 0 mm 1 m/s 757 mmHg 76%
    05:00 +27°C° 0 mm 1 m/s 757 mmHg 76%
    06:00 +28°C° 0 mm 1 m/s 758 mmHg 75%
    07:00 +28°C° 0 mm 1 m/s 758 mmHg 75%
    08:00 +29°C° 0 mm 1 m/s 758 mmHg 68%
    09:00 +31°C° 0 mm 2 m/s 758 mmHg 62%
    10:00 +34°C° 0 mm 2 m/s 758 mmHg 55%
    11:00 +34°C° 0 mm 3 m/s 758 mmHg 55%
    12:00 +35°C° 0 mm 5 m/s 757 mmHg 54%
    13:00 +35°C° 0 mm 6 m/s 756 mmHg 53%
    14:00 +34°C° 0 mm 5 m/s 756 mmHg 55%
    15:00 +34°C° 0 mm 5 m/s 755 mmHg 58%
    16:00 +33°C° 0 mm 5 m/s 755 mmHg 60%
    17:00 +32°C° 0 mm 4 m/s 756 mmHg 64%
    18:00 +30°C° 0 mm 4 m/s 756 mmHg 69%
    19:00 +29°C° 0 mm 3 m/s 757 mmHg 73%
    20:00 +28°C° 0 mm 3 m/s 757 mmHg 74%
    21:00 +28°C° 0 mm 2 m/s 758 mmHg 75%
    22:00 +28°C° 0 mm 2 m/s 759 mmHg 76%
    23:00 +28°C° 0 mm 2 m/s 758 mmHg 76%

    25 Janvier, Vendredi

    Heure Température Précipitation Vent Pression Humidité
    00:00 +28°C° 0 mm 2 m/s 758 mmHg 75%
    01:00 +28°C° 0 mm 1 m/s 757 mmHg 75%
    02:00 +28°C° 0 mm 1 m/s 757 mmHg 76%
    03:00 +27°C° 0 mm 1 m/s 757 mmHg 77%
    04:00 +27°C° 0 mm 1 m/s 757 mmHg 78%
    05:00 +27°C° 0 mm 1 m/s 757 mmHg 77%
    06:00 +28°C° 0 mm 1 m/s 758 mmHg 76%
    07:00 +28°C° 0 mm 1 m/s 758 mmHg 75%
    08:00 +30°C° 0 mm 2 m/s 758 mmHg 69%
    09:00 +31°C° 0 mm 2 m/s 758 mmHg 63%
    10:00 +34°C° 0 mm 2 m/s 758 mmHg 57%
    11:00 +35°C° 0 mm 3 m/s 757 mmHg 55%
    12:00 +35°C° 0 mm 4 m/s 757 mmHg 54%
    13:00 +36°C° 0 mm 5 m/s 756 mmHg 52%
    14:00 +35°C° 0.1 mm 5 m/s 756 mmHg 55%
    15:00 +35°C° 0.1 mm 5 m/s 756 mmHg 58%
    16:00 +34°C° 0.1 mm 5 m/s 755 mmHg 60%
    17:00 +32°C° 0.7 mm 4 m/s 756 mmHg 66%
    18:00 +30°C° 0.7 mm 3 m/s 757 mmHg 72%
    19:00 +29°C° 0.7 mm 2 m/s 757 mmHg 77%
    20:00 +29°C° 0.1 mm 2 m/s 758 mmHg 76%
    21:00 +29°C° 0.1 mm 2 m/s 758 mmHg 76%
    22:00 +29°C° 0.1 mm 1 m/s 759 mmHg 75%
    23:00 +29°C° 0 mm 1 m/s 759 mmHg 75%
    Voir plus